Regional Weather Roundup
Issued by NWS

Home | Current Version | Previous Version | Text Only | Print | Product List | Glossary Off
Versions: 1 2 3 4 5 6 7 8 9 10 11 12 13 14 15 16 17 18 19 20 21 22 23 24 25 26 27 28 29 30 31 32 33 34 35 36 37 38 39 40 41 42 43 44 45 46 47 48 49 50

000
ASUS43 KLOT 061603
RWRIL

ILLINOIS REGIONAL WEATHER ROUNDUP
NATIONAL WEATHER SERVICE CHICAGO/ROMEOVILLE IL
1100 AM CDT FRI MAY 06 2016

NOTE: "FAIR" INDICATES FEW OR NO CLOUDS BELOW 12,000 FEET WITH NO
SIGNIFICANT WEATHER AND/OR OBSTRUCTIONS TO VISIBILITY.

* THESE STATIONS ARE NOT UNDER NWS QUALITY CONTROL. THEY ALSO MAY NOT
  REPORT WEATHER SUCH AS PRECIPITATION OR FOG.

ILZ001-002-007-009-015-016-024-061700-
NORTHWEST ILLINOIS

CITY           SKY/WX    TMP DP  RH WIND       PRES   REMARKS
MOLINE         SUNNY     73  45  36 W6        29.99F
STERLING*      SUNNY     70  45  40 SW8       29.97F
$$

ILZ003-004-008-010-011-017-018-061700-
NORTH CENTRAL ILLINOIS

CITY           SKY/WX    TMP DP  RH WIND       PRES   REMARKS
ROCKFORD       MOSUNNY   71  45  39 W8        29.97F
FREEPORT*      MOSUNNY   67  46  47 W9        29.97F
ROCHELLE*      SUNNY     70  45  40 W14       29.97F
DE KALB*       SUNNY     70  44  38 SW16      29.97F
$$

ILZ005-006-012>014-019>023-061700-
NORTHEAST ILLINOIS

CITY           SKY/WX    TMP DP  RH WIND       PRES   REMARKS
CHICAGO-OHARE  PTSUNNY   67  43  41 SW12      29.97F
CHICAGO-MIDWAY PTSUNNY   68  39  34 SW10      29.98F
AURORA         PTSUNNY   69  42  37 W12       29.98F
LANSING*       SUNNY     68  41  37 W8        30.00S
WAUKEGAN       MOSUNNY   70  41  34 SW12      29.94F
DUPAGE AIRPORT PTSUNNY   67  42  40 W13       29.97F
WHEELING       MOSUNNY   70  40  33 W10       29.97F
NORTHERLY ISL    N/A     67  35  30 W5          N/A
NORTHERLY ISL    N/A     67  35  30 W5          N/A
$$

LMZ740>746-061700-
SOUTHERN LAKE MICHIGAN

STATION/POSITION SKY/WX   TEMP    WIND        PRES    VSBY  WAVE
                          AIR SEA DIR/SP/G                  HT/PER
                          (F)     (DEG/KT/KT) (MB)    (MI)  (FT/S)
SOUTHERN BUOY              44 40  170/  8/  8 1014.9          0
WILMETTE HARBOR            53 44  250/  4/  6   N/A           1/ 4
HARRISON CRIB              63     220/  6/  7   N/A
BURNHAM HARBOR             67     230/  5/ 12   N/A
CALUMET HARBOR             66     230/  3/  5 1015.1F
BURNS HARBOR               59     260/  4/  4 1016.6S
MICHIGAN CITY              55     220/ 10/ 11   N/A
ST. JOSEPH                 51                   N/A           1
$$

ILZ025>027-034>036-040-047-049-050-058-095>099-061700-
WEST-CENTRAL ILLINOIS

CITY           SKY/WX    TMP DP  RH WIND       PRES   REMARKS
QUINCY         SUNNY     69  42  37 W9        30.05S
MACOMB*        SUNNY     70  40  34 W10G16    30.05F
PITTSFIELD*    SUNNY     69  41  36 W7        30.07F
$$

ILZ028>032-037-038-041>044-048-051>054-059>061-061700-
CENTRAL ILLINOIS

CITY           SKY/WX    TMP DP  RH WIND       PRES   REMARKS
BLOOMINGTON    SUNNY     68  40  35 W10       30.04F
DECATUR        CLOUDY    66  42  41 NW10      30.06S
PEORIA         SUNNY     71  40  32 W7        30.02F
SPRINGFIELD    SUNNY     71  38  29 W10       30.05F
TAYLORVILLE    NOT AVBL
$$

ILZ033-039-045-046-055>057-062-063-061700-
EAST-CENTRAL ILLINOIS

CITY           SKY/WX    TMP DP  RH WIND       PRES   REMARKS
CHAMPAIGN      SUNNY     68  41  37 W14       30.04F
MATTOON        SUNNY     66  42  41 NW14      30.05S
$$

ILZ079-100>102-061700-
SOUTHWEST ILLINOIS

CITY           SKY/WX    TMP DP  RH WIND       PRES   REMARKS
ALTON          SUNNY     66  43  42 W12       30.07F
BELLEVILLE     SUNNY     69  46  43 NW10      30.07S
CAHOKIA*       SUNNY     69  40  34 W5        30.07F
SPARTA*        SUNNY     65  45  48 NW8       30.10R
$$

ILZ064>066-069>071-074>076-080>082-084>086-088>090-092>094-061700-
SOUTH-CENTRAL ILLINOIS

CITY           SKY/WX    TMP DP  RH WIND       PRES   REMARKS
CARBONDALE     SUNNY     68  42  38 NW9       30.08S
MARION         SUNNY     66  43  42 W9        30.09S
MT. VERNON     SUNNY     66  45  45 W5        30.08S
SALEM*         MOSUNNY   67  41  38 NW7       30.08S
$$

ILZ067-068-072-073-078-083-087-091-061700-
SOUTHEAST ILLINOIS

CITY           SKY/WX    TMP DP  RH WIND       PRES   REMARKS
LAWRENCEVILLE  SUNNY     68  43  40 NW12      30.06S
FLORA*         SUNNY     68  43  40 NW12      30.07S
HARRISBURG*    MOSUNNY   67  48  50 NW9       30.07F
ROBINSON*      SUNNY     65  47  51 N8        30.06S
$$

ABBREVIATIONS USED IN REMARKS
   TC - TEMPERATURE IN CELSIUS
  WCI - WIND CHILL INDEX
   HX - HEAT INDEX
  VSB - VISIBILITY
$$




USA.gov is the U.S. government's official web portal to all federal, state and local government web resources and services.